DW3973 Weather Reports


Display with metric or nautical units.
time (UTC)temp
F
wind
direction
speed
MPH
gust
MPH
rain 1hr
in
rain 24hr
in
rain mn
in
humidity
%
barometer
mb
20240619003159 81 355 0.0 0.0 0.00 0.00 0.00 45 1006.8
20240619002629 82 332 0.0 0.0 0.00 0.00 0.00 45 1006.9
20240619002159 82 347 0.0 0.0 0.00 0.00 0.00 44 1006.9
20240619001659 83 333 0.0 0.0 0.00 0.00 0.00 44 1006.9
20240619000659 83 312 0.0 0.0 0.00 0.00 0.00 43 1006.9
20240619000159 83 267 0.0 0.0 0.00 0.00 0.00 44 1006.9
20240618235159 83 306 0.0 0.0 0.00 0.00 0.00 45 1007.1
20240618234659 83 315 0.0 0.0 0.00 0.00 0.00 45 1007.1
20240618234159 82 297 0.0 0.0 0.00 0.00 0.00 45 1007.0
20240618233659 82 302 0.0 0.0 0.00 0.00 0.00 45 1007.0
20240618233159 82 342 0.0 0.0 0.00 0.00 0.00 44 1007.0
20240618232659 83 310 0.0 0.0 0.00 0.00 0.00 44 1007.1
20240618232159 83 5 0.0 0.0 0.00 0.00 0.00 44 1007.1
20240618231659 83 242 0.0 0.0 0.00 0.00 0.00 44 1007.1
20240618231159 83 324 0.0 0.0 0.00 0.00 0.00 44 1007.1
20240618230659 83 301 0.0 0.0 0.00 0.00 0.00 43 1007.1
20240618230159 83 291 0.0 0.0 0.00 0.00 0.00 44 1007.1
20240618225629 82 318 0.0 0.0 0.00 0.00 0.00 44 1007.2
20240618225159 83 340 0.0 0.0 0.00 0.00 0.00 44 1007.3
20240618224659 83 309 0.0 0.0 0.00 0.00 0.00 43 1007.3
20240618223659 83 339 0.0 0.0 0.00 0.00 0.00 42 1007.5
20240618223159 82 309 0.0 0.0 0.00 0.00 0.00 43 1007.4
20240618222128 83 350 0.0 0.0 0.00 0.00 0.00 41 1007.6
20240618221159 83 283 0.0 0.0 0.00 0.00 0.00 42 1007.6
20240618215658 83 5 0.0 0.0 0.00 0.00 0.00 41 1007.7
20240618215129 82 311 0.0 0.0 0.00 0.00 0.00 42 1007.7
20240618214659 82 275 0.0 0.0 0.00 0.00 0.00 42 1007.7
20240618214159 82 264 0.0 0.0 0.00 0.00 0.00 41 1007.7
20240618213658 82 344 0.0 0.0 0.00 0.00 0.00 41 1007.7
20240618212658 82 302 0.0 0.0 0.00 0.00 0.00 42 1007.7
20240618212159 82 309 0.0 0.0 0.00 0.00 0.00 42 1007.7
20240618210659 82 343 0.0 0.0 0.00 0.00 0.00 41 1007.8
20240618210158 82 328 0.0 0.0 0.00 0.00 0.00 42 1007.8
20240618205659 82 298 0.0 0.0 0.00 0.00 0.00 41 1007.9
20240618204659 81 338 0.0 0.0 0.00 0.00 0.00 44 1007.9
20240618203158 81 325 0.0 0.0 0.00 0.00 0.00 43 1007.9
20240618202658 80 355 0.0 0.0 0.00 0.00 0.00 44 1007.8
20240618202159 80 330 0.0 0.0 0.00 0.00 0.00 44 1007.8
20240618201658 81 322 0.0 0.0 0.00 0.00 0.00 43 1007.9
20240618201159 81 283 0.0 0.0 0.00 0.00 0.00 43 1008.0
20240618200659 81 281 0.0 0.0 0.00 0.00 0.00 42 1008.0
20240618200158 82 271 0.0 0.0 0.00 0.00 0.00 41 1008.0
20240618195659 81 337 0.0 0.0 0.00 0.00 0.00 40 1007.9
20240618195159 81 5 0.0 0.0 0.00 0.00 0.00 39 1007.9
20240618194658 81 344 0.0 0.0 0.00 0.00 0.00 40 1007.9
20240618194159 81 346 0.0 0.0 0.00 0.00 0.00 39 1008.0
20240618193658 81 30 0.0 0.0 0.00 0.00 0.00 40 1008.0
20240618193158 81 320 0.0 0.0 0.00 0.00 0.00 40 1008.0
20240618192659 81 336 0.0 0.0 0.00 0.00 0.00 38 1008.0
20240618192158 80 360 0.0 0.0 0.00 0.00 0.00 40 1008.0
20240618191658 80 344 0.0 0.0 0.00 0.00 0.00 39 1007.9
20240618191158 81 351 0.0 0.0 0.00 0.00 0.00 38 1008.1
20240618190658 80 286 0.0 3.0 0.00 0.00 0.00 38 1008.1
20240618190158 80 340 0.0 9.0 0.00 0.00 0.00 40 1008.2
20240618185658 80 330 3.0 9.0 0.00 0.00 0.00 40 1008.2
20240618185158 79 338 1.0 6.0 0.00 0.00 0.00 41 1008.2
20240618184658 80 76 3.0 7.0 0.00 0.00 0.00 39 1008.2
20240618184158 79 340 4.0 8.0 0.00 0.00 0.00 42 1008.2
20240618183658 79 248 1.0 8.0 0.00 0.00 0.00 40 1008.1
20240618183158 78 321 0.0 7.0 0.00 0.00 0.00 43 1008.2
20240618182658 77 5 3.0 6.0 0.00 0.00 0.00 43 1008.2
20240618182158 77 296 3.0 7.0 0.00 0.00 0.00 42 1008.1
20240618181658 77 292 4.0 7.0 0.00 0.00 0.00 43 1008.2
20240618181158 77 355 3.0 7.0 0.00 0.00 0.00 44 1008.2
20240618180658 77 252 0.0 7.0 0.00 0.00 0.00 44 1008.2
20240618175658 76 341 2.0 7.0 0.00 0.00 0.00 47 1008.3
20240618175158 75 48 5.0 7.0 0.00 0.00 0.00 51 1008.3
20240618174658 74 360 4.0 8.0 0.00 0.00 0.00 51 1008.2
20240618174158 74 355 3.0 8.0 0.00 0.00 0.00 54 1008.2
20240618173658 73 306 6.0 8.0 0.00 0.00 0.00 55 1008.2
20240618173158 72 355 1.0 5.0 0.00 0.00 0.00 57 1008.1
20240618172658 72 226 0.0 5.0 0.00 0.00 0.00 57 1008.3
20240618172158 72 350 3.0 5.0 0.00 0.00 0.00 60 1008.3
20240618171658 70 88 0.0 3.0 0.00 0.00 0.00 61 1008.2
20240618171158 70 144 0.0 4.0 0.00 0.00 0.00 62 1008.4
20240618170658 71 53 0.0 4.0 0.00 0.00 0.00 62 1008.5
20240618165658 70 70 0.0 3.0 0.00 0.00 0.00 65 1008.5
20240618165158 69 128 2.0 4.0 0.00 0.00 0.00 65 1008.5
20240618164658 68 67 0.0 5.0 0.00 0.00 0.00 66 1008.4
20240618164158 68 86 1.0 5.0 0.00 0.00 0.00 68 1008.3
20240618163658 67 105 0.0 5.0 0.00 0.00 0.00 70 1008.3
20240618163158 66 138 0.0 3.0 0.00 0.00 0.00 71 1008.2
20240618162658 66 143 0.0 2.0 0.00 0.00 0.00 72 1008.4
20240618162158 66 229 0.0 0.0 0.00 0.00 0.00 72 1008.4
20240618161658 66 140 0.0 0.0 0.00 0.00 0.00 72 1008.4
20240618161158 64 146 0.0 1.0 0.00 0.00 0.00 76 1008.4
20240618160658 63 146 0.0 3.0 0.00 0.00 0.00 77 1008.4
20240618155658 63 192 0.0 2.0 0.00 0.00 0.00 78 1008.5
20240618155158 62 167 0.0 3.0 0.00 0.00 0.00 81 1008.4
20240618154658 62 169 1.0 3.0 0.00 0.00 0.00 81 1008.4
20240618154157 61 194 2.0 2.0 0.00 0.00 0.00 82 1008.4
20240618153158 61 186 0.0 3.0 0.00 0.00 0.00 82 1008.4
20240618152657 61 167 1.0 1.0 0.00 0.00 0.00 83 1008.4
20240618151158 60 98 2.0 2.0 0.00 0.00 0.00 84 1008.3
20240618150658 60 99 0.0 0.0 0.00 0.00 0.00 84 1008.3
20240618150157 60 96 0.0 0.0 0.00 0.00 0.00 85 1008.3
20240618145658 60 96 0.0 0.0 0.00 0.00 0.00 86 1008.2
20240618144158 58 96 0.0 0.0 0.00 0.00 0.00 88 1008.1
20240618143658 58 96 0.0 0.0 0.00 0.00 0.00 88 1008.1
20240618143157 58 96 0.0 0.0 0.00 0.00 0.00 89 1008.1
20240618142658 58 96 0.0 0.0 0.00 0.00 0.00 89 1007.9
20240618142157 58 96 0.0 0.0 0.00 0.00 0.00 89 1007.9
20240618141658 58 122 0.0 0.0 0.00 0.00 0.00 89 1007.9
20240618141157 58 138 0.0 1.0 0.00 0.00 0.00 89 1007.9
20240618140657 58 75 0.0 3.0 0.00 0.00 0.00 90 1007.9
20240618140157 58 74 0.0 3.0 0.00 0.00 0.00 90 1007.9
20240618135657 57 87 0.0 3.0 0.00 0.00 0.00 90 1007.9
20240618135157 57 105 0.0 2.0 0.00 0.00 0.00 90 1007.9
20240618134657 57 146 1.0 1.0 0.00 0.00 0.00 90 1007.9
20240618134157 57 172 0.0 0.0 0.00 0.00 0.00 90 1007.9
20240618133657 57 173 0.0 0.0 0.00 0.00 0.00 89 1007.9
20240618132657 56 173 0.0 0.0 0.00 0.00 0.00 89 1007.5
20240618132157 56 191 0.0 0.0 0.00 0.00 0.00 89 1007.5
20240618131658 55 191 0.0 0.0 0.00 0.00 0.00 90 1007.4
20240618131158 55 191 0.0 0.0 0.00 0.00 0.00 90 1007.3
20240618130657 54 191 0.0 0.0 0.00 0.00 0.00 90 1007.3
20240618130158 54 191 0.0 0.0 0.00 0.00 0.00 90 1007.3
20240618125657 54 191 0.0 0.0 0.00 0.00 0.00 88 1007.3
20240618124657 56 101 0.0 0.0 0.00 0.00 0.00 87 1007.4
20240618124157 56 101 0.0 0.0 0.00 0.00 0.00 88 1007.0
20240618123657 56 101 0.0 0.0 0.00 0.00 0.00 88 1007.0
20240618123157 56 101 0.0 0.0 0.00 0.00 0.00 88 1007.0
20240618122157 55 101 0.0 1.0 0.00 0.00 0.00 89 1007.0
20240618121157 54 101 0.0 0.0 0.00 0.00 0.00 89 1006.9
20240618120657 55 101 0.0 0.0 0.00 0.00 0.00 88 1007.0
20240618115657 56 78 0.0 0.0 0.00 0.00 0.00 86 1007.1
20240618115157 57 78 0.0 0.0 0.00 0.00 0.00 87 1007.2
20240618114657 57 78 0.0 0.0 0.00 0.00 0.00 87 1007.2
20240618114157 56 78 0.0 0.0 0.00 0.00 0.00 88 1006.9
20240618113658 56 78 0.0 0.0 0.00 0.00 0.00 87 1006.9
20240618113157 56 78 0.0 0.0 0.00 0.00 0.00 86 1006.9
20240618112657 57 78 0.0 1.0 0.00 0.00 0.00 86 1006.8
20240618112157 57 78 0.0 1.0 0.00 0.00 0.00 86 1006.8
20240618111657 57 78 0.0 0.0 0.00 0.00 0.00 87 1006.8
20240618111157 57 78 0.0 0.0 0.00 0.00 0.00 86 1006.7
20240618110657 57 78 0.0 0.0 0.00 0.00 0.00 86 1006.7
20240618110157 57 78 0.0 0.0 0.00 0.00 0.00 86 1006.7
20240618105157 57 78 0.0 0.0 0.00 0.00 0.00 86 1006.7
20240618104657 57 78 0.0 0.0 0.00 0.00 0.00 86 1006.7
20240618104157 57 77 0.0 3.0 0.00 0.00 0.00 86 1006.7
20240618103657 57 77 0.0 3.0 0.00 0.00 0.00 86 1006.7
20240618103157 57 80 0.0 2.0 0.00 0.00 0.00 85 1006.7
20240618102657 57 90 0.0 2.0 0.00 0.00 0.00 85 1006.7
20240618102157 57 92 0.0 3.0 0.00 0.00 0.00 85 1006.7
20240618101157 58 97 0.0 2.0 0.00 0.00 0.00 84 1006.7
20240618100657 58 148 0.0 0.0 0.00 0.00 0.00 84 1006.7
20240618100157 58 148 0.0 0.0 0.00 0.00 0.00 84 1006.7
20240618095657 58 148 0.0 0.0 0.00 0.00 0.00 84 1006.7
20240618095157 58 148 0.0 0.0 0.00 0.00 0.00 84 1006.7
20240618094656 58 148 0.0 0.0 0.00 0.00 0.00 84 1006.7
20240618094156 58 155 0.0 0.0 0.00 0.00 0.00 84 1006.7
20240618093657 58 155 0.0 0.0 0.00 0.00 0.00 85 1006.7
20240618092657 58 155 0.0 0.0 0.00 0.00 0.00 85 1006.7
20240618092157 59 155 0.0 1.0 0.00 0.00 0.00 84 1006.8
20240618091657 59 155 0.0 1.0 0.00 0.00 0.00 84 1006.8
20240618091157 59 156 0.0 1.0 0.00 0.00 0.00 84 1006.8
20240618090656 59 156 1.0 1.0 0.00 0.00 0.00 83 1006.8
20240618090157 59 171 0.0 0.0 0.00 0.00 0.00 83 1006.8
20240618085656 59 171 0.0 0.0 0.00 0.00 0.00 83 1006.6
20240618085157 59 171 0.0 0.0 0.00 0.00 0.00 83 1006.6
20240618084656 59 171 0.0 0.0 0.00 0.00 0.00 83 1006.6
20240618084157 59 171 0.0 0.0 0.00 0.00 0.00 83 1006.7
20240618083657 59 171 0.0 0.0 0.00 0.00 0.00 84 1006.7
20240618083157 59 171 0.0 0.0 0.00 0.00 0.00 85 1006.7
20240618082656 59 172 0.0 0.0 0.00 0.00 0.00 85 1006.8
20240618082156 58 172 0.0 0.0 0.00 0.00 0.00 86 1006.8
20240618081656 58 172 0.0 0.0 0.00 0.00 0.00 86 1006.8
20240618081156 58 172 0.0 0.0 0.00 0.00 0.00 87 1007.1
20240618075657 58 170 0.0 0.0 0.00 0.00 0.00 85 1006.8
20240618075156 58 169 0.0 0.0 0.00 0.00 0.00 84 1006.8
20240618074156 60 164 0.0 0.0 0.00 0.00 0.00 82 1006.9
20240618073156 59 85 0.0 0.0 0.00 0.00 0.00 85 1006.8
20240618072657 58 263 0.0 0.0 0.00 0.00 0.00 85 1006.6
20240618072157 58 263 0.0 0.0 0.00 0.00 0.00 85 1006.6
20240618071656 58 263 0.0 0.0 0.00 0.00 0.00 85 1006.6
20240618071156 58 267 0.0 0.0 0.00 0.00 0.00 84 1006.8
20240618070656 59 269 0.0 0.0 0.00 0.00 0.00 83 1006.8
20240618070156 60 269 0.0 0.0 0.00 0.00 0.00 82 1006.9
20240618065656 60 269 0.0 0.0 0.00 0.00 0.00 81 1006.7
20240618065156 61 269 0.0 0.0 0.00 0.00 0.00 81 1006.8
20240618064656 61 269 0.0 0.0 0.00 0.00 0.00 81 1006.8
20240618063656 60 218 0.0 0.0 0.00 0.00 0.00 82 1006.7
20240618063156 61 218 0.0 0.0 0.00 0.00 0.00 81 1006.8
20240618062656 62 219 0.0 0.0 0.00 0.00 0.00 80 1007.1
20240618062156 62 219 0.0 0.0 0.00 0.00 0.00 80 1007.1
20240618061656 62 219 0.0 0.0 0.00 0.00 0.00 80 1007.1
20240618060156 61 219 0.0 0.0 0.00 0.00 0.00 81 1007.0
20240618055656 61 219 0.0 0.0 0.00 0.00 0.00 81 1006.7
20240618055156 61 219 0.0 0.0 0.00 0.00 0.00 81 1006.7
20240618054656 61 219 0.0 0.0 0.00 0.00 0.00 81 1006.7
20240618054156 61 223 0.0 0.0 0.00 0.00 0.00 81 1006.6
20240618053656 62 224 0.0 0.0 0.00 0.00 0.00 80 1006.7
20240618053156 62 225 0.0 0.0 0.00 0.00 0.00 80 1006.7
20240618052656 62 225 0.0 0.0 0.00 0.00 0.00 80 1006.8
20240618052156 62 225 0.0 0.0 0.00 0.00 0.00 79 1006.8
20240618051656 62 227 0.0 0.0 0.00 0.00 0.00 79 1006.8
20240618051156 63 223 0.0 0.0 0.00 0.00 0.00 79 1006.7
20240618050656 63 221 0.0 0.0 0.00 0.00 0.00 79 1006.7
20240618050156 63 226 0.0 0.0 0.00 0.00 0.00 78 1006.7
20240618045156 63 236 0.0 0.0 0.00 0.00 0.00 78 1006.5
20240618044656 63 240 0.0 0.0 0.00 0.00 0.00 78 1006.5
20240618043656 63 244 0.0 0.0 0.00 0.00 0.00 77 1006.3
20240618043156 63 229 0.0 0.0 0.00 0.00 0.00 77 1006.3
20240618042655 64 229 0.0 0.0 0.00 0.00 0.00 76 1006.0
20240618042156 64 234 0.0 0.0 0.00 0.00 0.00 76 1006.0
20240618041656 64 229 0.0 0.0 0.00 0.00 0.00 76 1006.0
20240618040156 65 224 0.0 0.0 0.00 0.00 0.00 74 1006.0
20240618035656 65 234 0.0 0.0 0.00 0.00 0.00 74 1006.0
20240618035156 66 286 0.0 0.0 0.00 0.00 0.00 73 1006.1
20240618034655 66 285 0.0 0.0 0.00 0.00 0.00 72 1006.1
20240618034155 66 283 0.0 0.0 0.00 0.00 0.00 72 1006.0
20240618033655 66 281 0.0 0.0 0.00 0.00 0.00 71 1006.0
20240618033156 66 298 0.0 0.0 0.00 0.00 0.00 71 1006.0
20240618032655 67 302 0.0 0.0 0.00 0.00 0.00 71 1005.8
20240618032155 67 311 0.0 0.0 0.00 0.00 0.00 71 1005.8
20240618031655 67 298 0.0 0.0 0.00 0.00 0.00 70 1005.7
20240618031156 67 305 0.0 0.0 0.00 0.00 0.00 69 1005.7
20240618030656 68 287 0.0 0.0 0.00 0.00 0.00 69 1005.8
20240618025655 68 342 0.0 0.0 0.00 0.00 0.00 68 1005.6
20240618024655 69 309 0.0 0.0 0.00 0.00 0.00 67 1005.7
20240618024155 69 308 0.0 0.0 0.00 0.00 0.00 67 1005.7
20240618023655 70 335 0.0 0.0 0.00 0.00 0.00 66 1005.8
20240618022655 70 311 0.0 0.0 0.00 0.00 0.00 65 1005.7
20240618022156 71 316 0.0 0.0 0.00 0.00 0.00 64 1005.7
20240618021655 71 346 0.0 0.0 0.00 0.00 0.00 63 1005.7
20240618020655 72 350 0.0 0.0 0.00 0.00 0.00 62 1005.7
20240618020155 72 355 0.0 0.0 0.00 0.00 0.00 61 1005.6
20240618015655 73 304 0.0 0.0 0.00 0.00 0.00 61 1005.6
20240618015155 73 289 0.0 0.0 0.00 0.00 0.00 60 1005.6
20240618014655 73 313 0.0 0.0 0.00 0.00 0.00 60 1005.6
20240618014155 74 308 0.0 0.0 0.00 0.00 0.00 59 1005.4
20240618013155 74 315 0.0 0.0 0.00 0.00 0.00 58 1005.3
20240618012655 74 281 0.0 0.0 0.00 0.00 0.00 58 1005.3
20240618012155 74 331 0.0 0.0 0.00 0.00 0.00 58 1005.3
20240618011655 74 270 0.0 0.0 0.00 0.00 0.00 57 1005.2
20240618010655 75 302 0.0 0.0 0.00 0.00 0.00 57 1005.3
20240618010155 75 302 0.0 0.0 0.00 0.00 0.00 56 1005.2
20240618005655 75 340 0.0 0.0 0.00 0.00 0.00 56 1005.2
20240618005155 75 23 0.0 0.0 0.00 0.00 0.00 56 1005.2
20240618004655 75 336 0.0 0.0 0.00 0.00 0.00 55 1005.1
20240618004155 75 287 0.0 0.0 0.00 0.00 0.00 55 1005.1